Location: Buchloe
(48.0161°N, 10.7316°E)
Time: 04:40:44
(UTC+02:00)

ISS - Pass Details

Date: 22 May 2018
Orbit: 402 x 407 km, 51.6° (Epoch: 26 May)

Event Time Altitude Azimuth Distance (km) Brightness Sun altitude
Rises 01:27:44 0° 283° (WNW) 2,318 0.1 -21.6°
Reaches altitude 10° 01:29:53 10° 290° (WNW) 1,457 -0.8 -21.6°
Maximum altitude 01:33:00 42° 3° (N) 588 -2.6 -21.5°
Drops below altitude 10° 01:36:08 10° 77° (ENE) 1,456 -0.8 -21.5°
Sets 01:38:17 0° 84° (E) 2,315 0.2 -21.4°
